Powrót do katalogu

THORAD DELTA 1 DEB

AktywnyLEO
NORAD 42603·DEBRIS·🇺🇸 United States

Wystrzelony Nov 15, 1974 z Vandenberg Space Force Base

Loading…

Następne Przeloty (najbliższe 24 godziny)

TLE

NieaktualneSource: Space-Track

Epoka: Sep 3, 2026, 01:14 UTC

1 42603U 74089FU  26246.05185379  .00000034  00000-0  64976-3 0  9993
2 42603 100.8969 323.9251 0211629 212.5172 146.2697 12.17913181567766

Śledź THORAD DELTA 1 DEB w czasie rzeczywistym z AllMySat

Download on the App Store